BEL6JO EBBR-LLBG

Flight info

Callsign BEL6JO
Flight time N/A
Altitude 33000
Route SOPOK4T SOPOK Y863 OGLOR DCT EMGOD DCT BOMBI DCT BOREP DCT ENITA DCT ETVIS DCT BUDEX DCT PESAT DCT INVED/N0453F350 DCT TIMUR L606 ADORU UN739 EKI UL854 KULAR UT39 TOMBI DCT IDAKU L35 PIKOG L609 ZUKKO VETEK1A
Aircraft A21N/M-SDE2E3FGHIRWXY/LB1

Departure

Time 2026-05-07 11:48
Airport Brussels Airport (EBBR)

Arrival

Time N/A
Airport Ben Gurion International Airport (LLBG)
Time Latitude Longitude Altitude Speed Heading
2026-05-07 11:40 50.89249 4.48357 161 ft 0 kts 70°
2026-05-07 11:42 50.89249 4.48360 161 ft 1 kts 70°
2026-05-07 11:42 50.89255 4.48393 160 ft 4 kts 94°
2026-05-07 11:43 50.89235 4.48438 159 ft 6 kts 151°
2026-05-07 11:43 50.89197 4.48437 160 ft 5 kts 212°
2026-05-07 11:43 50.89180 4.48397 161 ft 3 kts 250°
2026-05-07 11:43 50.89173 4.48367 162 ft 2 kts 250°
2026-05-07 11:44 50.89170 4.48354 162 ft 0 kts 250°
2026-05-07 11:44 50.89169 4.48353 162 ft 0 kts 250°
2026-05-07 11:46 50.89168 4.48346 162 ft 2 kts 250°
2026-05-07 11:46 50.89154 4.48285 162 ft 10 kts 250°
2026-05-07 11:46 50.89117 4.48130 161 ft 20 kts 249°
2026-05-07 11:46 50.89064 4.47943 159 ft 15 kts 219°
2026-05-07 11:47 50.88968 4.47951 159 ft 14 kts 151°
2026-05-07 11:47 50.88938 4.48066 163 ft 11 kts 95°
2026-05-07 11:47 50.89012 4.48484 163 ft 77 kts 72°
2026-05-07 11:47 50.89285 4.49662 158 ft 148 kts 72°
2026-05-07 11:48 50.89698 4.51478 303 ft 193 kts 69°
2026-05-07 11:48 50.90185 4.53537 907 ft 210 kts 69°
2026-05-07 11:48 50.90729 4.55825 1604 ft 230 kts 67°
2026-05-07 11:48 50.91546 4.57860 2571 ft 221 kts 42°
2026-05-07 11:49 50.92770 4.59381 3037 ft 230 kts 40°
2026-05-07 11:49 50.93830 4.61365 3322 ft 246 kts 64°
2026-05-07 11:49 50.94352 4.64012 3773 ft 256 kts 77°
2026-05-07 11:49 50.94670 4.66790 4349 ft 261 kts 81°
2026-05-07 11:50 50.94924 4.69655 4995 ft 263 kts 82°
2026-05-07 11:50 50.95146 4.72515 5632 ft 265 kts 83°
2026-05-07 11:50 50.95352 4.75404 6265 ft 267 kts 85°
2026-05-07 11:50 50.95100 4.78297 6838 ft 272 kts 114°
2026-05-07 11:51 50.93948 4.80687 7445 ft 275 kts 139°
2026-05-07 11:51 50.92455 4.82577 8035 ft 278 kts 140°
2026-05-07 11:51 50.90958 4.84484 8586 ft 281 kts 140°
2026-05-07 11:51 50.89429 4.86441 9138 ft 284 kts 143°